FW4441 Weather Reports


time (UTC)temp
C
wind
direction
speed
KPH
gust
KPH
rain 1hr
cm
rain 24hr
cm
rain mn
cm
humidity
%
barometer
mb
20260906013105 18 175 3.2 6.4 0.00 0.03 0.00 69 1013.7
20260906011531 19 164 3.2 9.7 0.00 0.03 0.00 68 1013.7
20260906010107 19 183 3.2 6.4 0.00 0.03 0.00 68 1013.9
20260906003032 18 169 6.4 12.9 0.00 0.03 0.00 75 1014.1
20260906001605 17 164 3.2 11.3 0.00 0.03 0.00 78 1014.3
20260906000031 16 147 4.8 11.3 0.00 0.03 0.00 77 1014.4
20260905233031 17 166 6.4 16.1 0.00 0.03 0.00 73 1014.1
20260905231528 18 176 4.8 12.9 0.00 0.03 0.00 70 1014.0
20260905230032 18 161 3.2 6.4 0.00 0.03 0.00 68 1014.0
20260905224530 18 311 0.0 4.8 0.00 0.03 0.00 68 1013.9
20260905223028 18 283 0.0 0.0 0.00 0.03 0.00 68 1013.9
20260905221532 20 258 0.0 6.4 0.00 0.03 0.00 66 1013.9
20260905220032 20 309 0.0 4.8 0.00 0.03 0.00 66 1014.0
20260905214532 19 213 1.6 4.8 0.00 0.03 0.00 69 1014.1
20260905211532 18 185 3.2 8.0 0.00 0.03 0.00 71 1014.4
20260905210028 18 187 4.8 8.0 0.00 0.03 0.00 70 1014.5
20260905204532 19 188 6.4 11.3 0.00 0.03 0.00 69 1014.5
20260905203105 20 171 4.8 9.7 0.00 0.03 0.00 67 1014.5
20260905201530 20 207 3.2 8.0 0.00 0.03 0.00 68 1014.5
20260905200030 20 318 1.6 8.0 0.00 0.03 0.00 68 1014.7
20260905194532 20 315 3.2 8.0 0.00 0.03 0.00 71 1014.8
20260905193030 20 300 1.6 9.7 0.00 0.03 0.00 71 1015.0
20260905191541 20 329 3.2 8.0 0.00 0.03 0.00 73 1015.1
20260905190033 20 263 1.6 9.7 0.00 0.03 0.00 78 1015.3
20260905184530 17 297 0.0 4.8 0.00 0.03 0.00 81 1015.6
20260905183031 18 331 3.2 9.7 0.00 0.03 0.00 84 1015.7
20260905181531 16 257 3.2 9.7 0.00 0.03 0.00 89 1016.0
20260905180032 15 251 1.6 4.8 0.00 0.03 0.00 94 1016.0
20260905173030 13 292 1.6 4.8 0.00 0.03 0.00 96 1016.0
20260905171529 13 301 1.6 8.0 0.00 0.03 0.00 96 1016.0
20260905164607 12 270 0.0 1.6 0.00 0.03 0.00 97 1016.0
20260905160031 12 254 0.0 4.8 0.00 0.03 0.00 97 1015.9
20260905154531 11 19 0.0 3.2 0.00 0.03 0.00 97 1015.9
20260905153028 11 22 1.6 6.4 0.00 0.03 0.00 97 1015.9
20260905151530 11 327 1.6 4.8 0.00 0.03 0.00 97 1015.9
20260905150031 11 215 1.6 3.2 0.00 0.03 0.00 97 1015.8
20260905144529 10 360 1.6 4.8 0.00 0.03 0.00 97 1015.7
20260905143030 10 43 3.2 6.4 0.00 0.03 0.00 97 1015.7
20260905140055 10 151 0.0 4.8 0.00 0.03 0.00 97 1015.5
20260905131531 10 118 0.0 0.0 0.00 0.05 0.00 96 1015.1
20260905130030 10 112 0.0 1.6 0.00 0.05 0.00 96 1015.0
20260905124532 10 112 0.0 1.6 0.00 0.05 0.00 96 1015.1
20260905123144 10 133 0.0 3.2 0.00 0.05 0.00 96 1015.2
20260905121529 10 131 3.2 8.0 0.00 0.05 0.00 96 1015.2
20260905120029 10 22 0.0 6.4 0.00 0.05 0.00 96 1015.0
20260905114646 10 22 6.4 11.3 0.00 0.05 0.00 96 1015.0
20260905113029 10 45 0.0 4.8 0.00 0.05 0.00 96 1015.0
20260905111531 10 45 0.0 0.0 0.00 0.05 0.00 96 1014.9
20260905110032 10 31 0.0 3.2 0.00 0.05 0.00 95 1014.8
20260905101531 11 165 0.0 3.2 0.00 0.05 0.00 95 1014.8
20260905100029 11 157 0.0 0.0 0.00 0.05 0.00 95 1014.8
20260905094530 11 157 0.0 3.2 0.00 0.05 0.00 94 1014.9
20260905091531 11 112 0.0 1.6 0.00 0.05 0.00 94 1014.8
20260905090030 11 112 0.0 3.2 0.00 0.05 0.00 94 1014.7
20260905084530 11 112 0.0 3.2 0.00 0.05 0.00 93 1014.7
20260905083030 11 151 0.0 3.2 0.00 0.05 0.00 93 1014.7
20260905081532 11 170 1.6 6.4 0.00 0.05 0.00 93 1014.5
20260905080032 11 98 0.0 3.2 0.00 0.05 0.00 92 1014.4
20260905073104 11 94 1.6 4.8 0.00 0.05 0.00 91 1014.2
20260905071533 11 145 3.2 6.4 0.00 0.05 0.00 91 1014.1
20260905070104 11 22 3.2 8.0 0.03 0.05 0.00 90 1013.9
20260905064531 11 25 4.8 8.0 0.03 0.05 0.05 89 1013.7
20260905063106 11 59 3.2 8.0 0.03 0.05 0.05 88 1013.7
20260905060031 12 231 1.6 4.8 0.00 0.03 0.03 85 1013.8
20260905053108 13 118 1.6 3.2 0.00 0.03 0.03 82 1013.5
20260905051540 13 90 0.0 0.0 0.00 0.03 0.03 81 1013.7
20260905050030 13 90 0.0 1.6 0.00 0.03 0.03 81 1013.6
20260905044532 13 31 0.0 1.6 0.00 0.03 0.03 81 1013.6
20260905041530 12 22 0.0 3.2 0.00 0.03 0.03 80 1013.4
20260905040107 13 17 3.2 6.4 0.00 0.03 0.03 80 1013.4
20260905034603 13 36 4.8 6.4 0.00 0.03 0.03 80 1013.2
20260905033030 13 22 3.2 6.4 0.00 0.03 0.03 79 1013.0
20260905031529 13 12 4.8 8.0 0.00 0.03 0.03 77 1012.9
20260905030031 14 208 0.0 3.2 0.00 0.03 0.03 75 1012.8
20260905024530 15 51 1.6 6.4 0.00 0.03 0.03 75 1012.7
20260905021531 14 46 4.8 9.7 0.00 0.03 0.03 75 1012.7
20260905014532 15 10 6.4 9.7 0.00 0.03 0.03 71 1012.3